Hourly Weather Klarow

Today, 29 July, Thursday

Time Temperature Precipitation Wind Pressure Humidity
00:00 +21°C° 0.1 mm 3 mps 743 mmHg 82%
01:00 +21°C° 0.1 mm 4 mps 743 mmHg 85%
02:00 +21°C° 0 mm 4 mps 743 mmHg 88%
03:00 +20°C° 0.1 mm 4 mps 743 mmHg 90%
04:00 +20°C° 0.1 mm 3 mps 743 mmHg 93%
05:00 +20°C° 0.1 mm 3 mps 743 mmHg 95%
06:00 +20°C° 0 mm 3 mps 743 mmHg 93%
07:00 +21°C° 0 mm 4 mps 743 mmHg 91%
08:00 +21°C° 0 mm 4 mps 744 mmHg 88%
09:00 +22°C° 0 mm 5 mps 744 mmHg 78%
10:00 +25°C° 0 mm 5 mps 744 mmHg 68%
11:00 +27°C° 0 mm 5 mps 744 mmHg 58%
12:00 +27°C° 0 mm 5 mps 744 mmHg 53%
13:00 +28°C° 0 mm 5 mps 744 mmHg 49%
14:00 +29°C° 0 mm 5 mps 744 mmHg 44%
15:00 +29°C° 0 mm 5 mps 744 mmHg 44%
16:00 +29°C° 0 mm 4 mps 744 mmHg 43%
17:00 +29°C° 0 mm 4 mps 744 mmHg 42%
18:00 +27°C° 0 mm 4 mps 744 mmHg 47%
19:00 +26°C° 0 mm 3 mps 744 mmHg 51%
20:00 +25°C° 0 mm 3 mps 744 mmHg 55%
21:00 +24°C° 0 mm 2 mps 744 mmHg 59%
22:00 +23°C° 0 mm 2 mps 744 mmHg 62%
23:00 +21°C° 0 mm 2 mps 744 mmHg 66%

Tomorrow, 30 July, Friday

Time Temperature Precipitation Wind Pressure Humidity
00:00 +20°C° 0 mm 2 mps 745 mmHg 69%
01:00 +19°C° 0 mm 2 mps 745 mmHg 73%
02:00 +18°C° 0 mm 2 mps 745 mmHg 77%
03:00 +18°C° 0 mm 2 mps 745 mmHg 78%
04:00 +17°C° 0 mm 2 mps 744 mmHg 80%
05:00 +17°C° 0 mm 2 mps 744 mmHg 82%
06:00 +19°C° 0 mm 2 mps 744 mmHg 75%
07:00 +20°C° 0 mm 2 mps 745 mmHg 68%
08:00 +23°C° 0 mm 2 mps 745 mmHg 62%
09:00 +24°C° 0 mm 3 mps 745 mmHg 57%
10:00 +26°C° 0 mm 4 mps 744 mmHg 52%
11:00 +27°C° 0 mm 5 mps 744 mmHg 47%
12:00 +28°C° 0 mm 5 mps 744 mmHg 44%
13:00 +29°C° 0 mm 6 mps 744 mmHg 42%
14:00 +30°C° 0 mm 6 mps 743 mmHg 39%
15:00 +30°C° 0 mm 6 mps 743 mmHg 40%
16:00 +30°C° 0 mm 6 mps 743 mmHg 41%
17:00 +29°C° 0 mm 5 mps 742 mmHg 42%
18:00 +28°C° 0 mm 4 mps 742 mmHg 48%
19:00 +26°C° 0 mm 3 mps 742 mmHg 54%
20:00 +24°C° 0 mm 1 mps 742 mmHg 61%
21:00 +23°C° 0 mm 1 mps 742 mmHg 63%
22:00 +22°C° 0 mm 1 mps 742 mmHg 66%
23:00 +21°C° 0 mm 1 mps 743 mmHg 68%

Day after tomorrow, 31 July, Saturday

Time Temperature Precipitation Wind Pressure Humidity
00:00 +20°C° 0 mm 1 mps 743 mmHg 70%
01:00 +20°C° 0 mm 1 mps 742 mmHg 71%
02:00 +20°C° 0 mm 1 mps 742 mmHg 72%
03:00 +20°C° 0 mm 1 mps 742 mmHg 74%
04:00 +20°C° 0 mm 1 mps 742 mmHg 75%
05:00 +20°C° 0 mm 1 mps 742 mmHg 77%
06:00 +22°C° 0 mm 1 mps 742 mmHg 73%
07:00 +23°C° 0 mm 1 mps 742 mmHg 69%
08:00 +25°C° 0 mm 1 mps 742 mmHg 64%
09:00 +27°C° 0 mm 1 mps 742 mmHg 58%
10:00 +29°C° 0 mm 2 mps 742 mmHg 52%
11:00 +30°C° 0 mm 2 mps 742 mmHg 46%
12:00 +31°C° 0 mm 2 mps 741 mmHg 43%
13:00 +32°C° 0 mm 2 mps 741 mmHg 40%
14:00 +34°C° 0 mm 2 mps 740 mmHg 37%
15:00 +29°C° 3.3 mm 3 mps 740 mmHg 56%
16:00 +25°C° 3.3 mm 5 mps 740 mmHg 75%
17:00 +21°C° 3.3 mm 7 mps 740 mmHg 94%
18:00 +20°C° 2.1 mm 5 mps 741 mmHg 95%
19:00 +20°C° 2.1 mm 4 mps 741 mmHg 95%
20:00 +19°C° 2.1 mm 3 mps 741 mmHg 96%
21:00 +19°C° 0 mm 3 mps 742 mmHg 96%
22:00 +18°C° 0 mm 2 mps 742 mmHg 96%
23:00 +18°C° 0 mm 2 mps 743 mmHg 96%

1 August, Sunday

Time Temperature Precipitation Wind Pressure Humidity
00:00 +18°C° 0 mm 2 mps 743 mmHg 96%
01:00 +17°C° 0 mm 3 mps 742 mmHg 96%
02:00 +17°C° 0 mm 3 mps 742 mmHg 97%
03:00 +17°C° 0 mm 3 mps 742 mmHg 97%
04:00 +17°C° 0 mm 3 mps 743 mmHg 97%
05:00 +16°C° 0 mm 3 mps 743 mmHg 97%
06:00 +18°C° 0 mm 2 mps 743 mmHg 91%
07:00 +19°C° 0 mm 2 mps 743 mmHg 86%
08:00 +21°C° 0 mm 2 mps 743 mmHg 81%
09:00 +23°C° 0 mm 2 mps 743 mmHg 72%
10:00 +25°C° 0 mm 2 mps 743 mmHg 63%
11:00 +26°C° 0 mm 2 mps 743 mmHg 55%
12:00 +27°C° 0 mm 2 mps 743 mmHg 53%
13:00 +27°C° 0 mm 2 mps 742 mmHg 52%
14:00 +28°C° 0 mm 2 mps 742 mmHg 51%
15:00 +28°C° 0 mm 2 mps 741 mmHg 52%
16:00 +28°C° 0 mm 2 mps 741 mmHg 53%
17:00 +28°C° 0 mm 3 mps 740 mmHg 54%
18:00 +26°C° 2.1 mm 3 mps 740 mmHg 66%
19:00 +24°C° 2.1 mm 3 mps 740 mmHg 77%
20:00 +20°C° 2.1 mm 3 mps 740 mmHg 89%
21:00 +20°C° 3.9 mm 3 mps 740 mmHg 91%
22:00 +19°C° 3.9 mm 2 mps 740 mmHg 92%
23:00 +19°C° 3.9 mm 1 mps 740 mmHg 94%

2 August, Monday

Time Temperature Precipitation Wind Pressure Humidity
00:00 +19°C° 0.5 mm 1 mps 740 mmHg 94%
01:00 +19°C° 0.5 mm 1 mps 739 mmHg 95%
02:00 +19°C° 0.5 mm 1 mps 739 mmHg 95%
03:00 +18°C° 0 mm 2 mps 739 mmHg 96%
04:00 +17°C° 0 mm 2 mps 739 mmHg 97%
05:00 +17°C° 0 mm 2 mps 739 mmHg 97%
06:00 +17°C° 0.1 mm 3 mps 739 mmHg 96%
07:00 +17°C° 0.1 mm 3 mps 740 mmHg 95%
08:00 +17°C° 0.1 mm 4 mps 740 mmHg 94%
09:00 +17°C° 0.6 mm 4 mps 740 mmHg 95%
10:00 +15°C° 0.6 mm 5 mps 741 mmHg 95%
11:00 +15°C° 0.6 mm 5 mps 742 mmHg 96%
12:00 +15°C° 0.4 mm 5 mps 742 mmHg 95%
13:00 +14°C° 0.4 mm 5 mps 743 mmHg 93%
14:00 +14°C° 0.4 mm 5 mps 744 mmHg 92%
15:00 +14°C° 0.1 mm 5 mps 744 mmHg 90%
16:00 +15°C° 0.1 mm 4 mps 744 mmHg 87%
17:00 +15°C° 0.1 mm 4 mps 745 mmHg 85%
18:00 +15°C° 0 mm 4 mps 745 mmHg 87%
19:00 +16°C° 0 mm 3 mps 745 mmHg 89%
20:00 +14°C° 0 mm 3 mps 745 mmHg 91%
21:00 +14°C° 0 mm 3 mps 745 mmHg 92%
22:00 +13°C° 0 mm 3 mps 745 mmHg 93%
23:00 +13°C° 0 mm 3 mps 745 mmHg 95%

3 August, Tuesday

Time Temperature Precipitation Wind Pressure Humidity
00:00 +13°C° 0 mm 3 mps 746 mmHg 94%
01:00 +12°C° 0 mm 3 mps 746 mmHg 94%
02:00 +12°C° 0 mm 3 mps 746 mmHg 94%
03:00 +12°C° 0 mm 3 mps 746 mmHg 93%
04:00 +12°C° 0 mm 3 mps 746 mmHg 93%
05:00 +12°C° 0 mm 3 mps 746 mmHg 92%
06:00 +14°C° 0 mm 4 mps 746 mmHg 88%
07:00 +15°C° 0 mm 4 mps 746 mmHg 84%
08:00 +18°C° 0 mm 4 mps 746 mmHg 79%
09:00 +19°C° 0.2 mm 4 mps 746 mmHg 75%
10:00 +20°C° 0.2 mm 4 mps 746 mmHg 71%
11:00 +22°C° 0.2 mm 4 mps 747 mmHg 66%
12:00 +22°C° 0.9 mm 4 mps 746 mmHg 67%
13:00 +22°C° 0.9 mm 5 mps 746 mmHg 67%
14:00 +22°C° 0.9 mm 5 mps 746 mmHg 68%
15:00 +22°C° 0.3 mm 5 mps 746 mmHg 67%
16:00 +22°C° 0.3 mm 4 mps 746 mmHg 66%
17:00 +22°C° 0.3 mm 4 mps 746 mmHg 65%
18:00 +21°C° 0.1 mm 3 mps 746 mmHg 69%
19:00 +20°C° 0.1 mm 2 mps 746 mmHg 72%
20:00 +19°C° 0.1 mm 1 mps 746 mmHg 76%
21:00 +19°C° 0 mm 1 mps 747 mmHg 77%
22:00 +18°C° 0 mm 1 mps 747 mmHg 79%
23:00 +16°C° 0 mm 2 mps 747 mmHg 80%
Show more